Bolton, Canada
Current Conditions -  °F | °C
As of 12:56 PM on Tuesday 21 Oct 2014 (Local Time) from CYYZ Reporting Station
Overcast Overcast  
Wind Chill: 40°   Ceiling: 900
Heat Index: 46°   Visibility: 12mi
Dew Point: 45°   Wind: 16mph
Humidity: 93%   Direction: 10°N
Pressure: 29.92"   Gusts: NA
Location:  43.88°N, 79.73°W
Report Text: CYYZ 211656Z 01014KT 12SM OVC009 08/07 A2992 RMK SF8 SLP134
Loading
Personal Weather Stations






























Interactive Weather Map
Tropical Storm Tracking
New forecast layout! Learn more

10-Day Weather Forecast

Advertisements
Track Severe Weather on mobile